CAPE
0 0 0 0 0 0 0 0 0 0 0 0 0 0 0 0 0 0 0 0 0 0 0 0 0 0 0 0 0 0 0 0 0 0 101 232 403 744 714 552 468 305 397 719 838 910 634 343 284
0 0 0 0 0 0 0 0 0 0 0 0 0 0 0 0 0 0 0 0 0 0 0 0 0 0 0 0 0 0 0 0 0 0 0 1 133 329 543 562 562 351 356 769 836 842 885 708 607
0 0 0 0 0 0 0 0 0 0 0 0 0 0 0 0 0 0 0 0 0 0 0 0 0 0 0 0 0 0 0 0 0 0 0 0 0 49 200 439 554 572 220 498 871 865 824 776 647
0 0 0 0 0 0 0 0 0 0 0 0 0 0 0 0 0 0 0 0 0 0 0 0 0 0 0 0 0 0 0 0 0 0 0 0 0 1 2 136 403 663 636 348 544 745 708 613 475
0 0 0 0 0 0 0 0 0 0 0 0 0 0 0 0 0 0 0 0 0 0 0 0 0 0 0 0 0 0 0 0 0 0 0 0 0 0 0 0 117 451 757 761 474 569 433 476 301
0 0 0 0 0 0 0 0 0 0 0 0 0 0 0 0 0 0 0 0 0 0 0 0 0 0 0 0 0 0 0 0 0 0 0 0 0 0 0 0 2 195 691 873 746 511 353 415 249
0 0 0 0 0 0 0 0 0 0 0 0 0 0 0 0 0 0 0 0 0 0 0 0 0 0 0 0 0 0 0 0 0 0 0 0 0 0 0 0 0 0 361 798 821 512 376 380 175
0 0 0 0 0 0 0 0 0 0 0 0 0 0 0 0 0 0 0 0 0 0 0 0 0 0 0 0 0 0 0 0 0 0 0 0 0 0 0 0 0 0 1 425 779 597 418 350 183
0 0 0 0 0 0 0 0 0 0 0 0 0 0 0 0 0 0 0 0 0 0 0 0 0 0 0 0 0 0 0 0 0 0 0 0 0 0 0 0 0 0 2 49 401 579 356 343 139
0 0 0 0 0 0 0 0 0 0 0 0 0 0 0 0 0 0 0 0 0 0 0 0 0 0 0 0 0 0 0 0 0 0 0 0 0 0 0 0 0 0 0 0 8 225 425 177 24
0 0 0 0 0 0 0 0 0 0 0 0 0 0 0 0 0 0 0 0 0 0 0 0 0 0 0 0 0 0 0 0 0 0 3 4 3 4 4 4 2 0 0 0 28 199 405 23 0
0 0 0 0 0 0 0 0 0 0 0 0 0 0 0 0 0 0 0 0 0 0 0 0 0 0 0 0 0 0 0 0 0 2 6 5 2 1 1 1 3 1 3 9 224 472 194 19 4
0 0 0 0 0 0 0 0 0 0 0 0 0 0 0 0 0 0 0 0 0 0 0 0 0 0 0 0 0 0 0 0 3 3 5 2 0 1 10 2 1 4 6 16 166 232 74 3 4
0 0 0 0 0 0 0 0 0 0 0 0 0 0 0 0 0 0 0 0 0 0 0 0 0 0 0 0 0 0 0 2 1 1 1 3 1 0 8 12 2 1 8 9 151 88 3 1 0
0 0 0 0 0 0 0 0 0 0 0 0 0 0 0 0 0 0 0 0 0 0 0 0 0 0 0 0 0 0 1 0 1 1 1 3 2 2 6 12 3 1 9 0 83 12 6 4 0
0 0 0 0 0 0 0 0 0 0 0 0 0 0 0 0 0 0 0 0 0 0 0 0 0 0 0 0 0 0 1 0 0 0 3 0 1 3 3 13 4 2 16 1 19 6 2 0 0
0 0 0 0 0 0 0 0 0 0 0 0 0 0 0 0 0 0 0 0 0 0 0 0 0 0 0 0 0 1 1 0 0 0 1 0 3 7 4 10 1 1 0 10 10 10 0 0 0
0 0 0 0 0 0 0 0 0 0 0 0 0 0 0 0 0 0 0 0 0 0 0 0 0 0 0 0 0 1 1 2 0 0 2 9 8 3 2 2 1 2 0 11 8 1 3 0 6
0 0 0 0 0 0 0 0 0 0 0 0 0 0 0 0 0 0 0 0 0 0 0 0 0 0 0 0 1 1 3 0 2 8 1 21 7 11 15 1 1 0 1 3 0 1 0 2 0
0 0 0 0 0 0 0 0 0 0 0 0 0 0 0 0 0 0 0 0 0 0 0 0 0 0 0 0 1 1 1 0 0 14 22 9 10 18 5 1 0 0 1 1 2 2 2 0 2
0 0 0 0 0 0 0 0 0 0 0 0 0 0 0 0 0 0 0 0 0 0 0 0 0 0 0 1 0 1 0 1 10 8 11 4 8 9 3 0 0 1 2 0 2 0 0 3 30
0 0 0 0 0 0 0 0 0 0 0 0 0 0 0 0 0 0 0 0 0 0 0 0 0 0 0 2 0 1 1 2 1 11 6 4 3 0 0 0 0 1 3 1 0 1 0 0 0
0 0 0 0 0 0 0 0 0 0 0 0 0 0 0 0 0 0 0 0 0 0 0 0 0 0 0 0 0 1 1 1 1 2 7 2 0 1 0 0 0 0 5 6 2 0 0 1 0
0 0 0 0 0 0 0 0 0 0 0 0 0 0 0 0 0 0 0 0 0 0 0 0 0 0 0 0 0 1 1 2 2 0 0 8 0 1 3 3 0 17 5 0 0 0 0 0 0
0 0 0 0 0 0 0 0 0 0 0 0 0 0 0 0 0 0 0 0 0 0 0 0 0 0 0 0 0 1 0 1 1 1 0 0 8 5 3 4 7 17 8 1 2 2 0 0 0
0 0 0 0 0 0 0 0 0 0 0 0 0 0 0 0 0 0 0 0 0 0 0 0 0 0 0 1 0 0 0 2 0 1 1 0 0 0 8 2 6 7 2 0 0 0 0 0 0
0 0 0 0 0 0 0 0 0 0 0 0 0 0 0 0 0 0 0 0 0 0 0 0 0 0 0 1 0 0 0 0 1 2 1 0 0 0 0 0 0 4 11 4 4 3 2 0 0
0 0 0 0 0 0 0 0 0 0 0 0 0 0 0 0 0 0 0 0 0 0 0 0 0 0 0 0 0 0 0 0 0 0 0 0 0 0 0 0 0 0 0 1 10 2 1 0 0
0 0 0 0 0 0 0 0 0 0 0 0 0 0 0 0 0 0 0 0 0 0 0 0 0 0 0 0 0 0 0 0 0 0 0 0 0 0 0 0 0 0 0 0 0 0 0 0 0
0 0 0 0 0 0 0 0 0 0 0 0 0 0 0 0 0 0 0 0 0 0 0 0 0 0 0 0 0 0 0 0 0 0 0 0 0 0 0 0 0 0 0 0 0 0 0 0 0
CIN
0 0 0 0 0 0 0 0 0 0 0 0 0 0 0 0 0 0 0 0 0 0 0 0 0 0 0 0 0 0 0 0 0 0 -187 -57 -6 0 0 -2 -2 -12 -5 0 0 0 -1 -15 -16
0 0 0 0 0 0 0 0 0 0 0 0 0 0 0 0 0 0 0 0 0 0 0 0 0 0 0 0 0 0 0 0 0 0 0 -35 -98 -12 0 0 0 -1 -2 0 0 0 0 0 0
0 0 0 0 0 0 0 0 0 0 0 0 0 0 0 0 0 0 0 0 0 0 0 0 0 0 0 0 0 0 0 0 0 0 0 0 0 -98 -21 0 0 0 -3 0 0 -5 0 -1 0
0 0 0 0 0 0 0 0 0 0 0 0 0 0 0 0 0 0 0 0 0 0 0 0 0 0 0 0 0 0 0 0 0 0 0 0 0 0 -2 -33 -1 0 0 -2 0 0 0 -2 -11
0 0 0 0 0 0 0 0 0 0 0 0 0 0 0 0 0 0 0 0 0 0 0 0 0 0 0 0 0 0 0 0 0 0 0 0 0 0 0 0 -51 -6 0 0 0 -1 -3 -3 -15
0 0 0 0 0 0 0 0 0 0 0 0 0 0 0 0 0 0 0 0 0 0 0 0 0 0 0 0 0 0 0 0 0 0 0 0 0 0 0 0 -62 -57 0 0 0 -3 -9 -4 -15
0 0 0 0 0 0 0 0 0 0 0 0 0 0 0 0 0 0 0 0 0 0 0 0 0 0 0 0 0 0 0 0 0 0 0 0 0 0 0 0 0 0 -27 -2 -1 -17 -13 -4 -12
0 0 0 0 0 0 0 0 0 0 0 0 0 0 0 0 0 0 0 0 0 0 0 0 0 0 0 0 0 0 0 0 0 0 0 0 0 0 0 0 0 0 -12 -27 -4 -8 -14 -8 -12
0 0 0 0 0 0 0 0 0 0 0 0 0 0 0 0 0 0 0 0 0 0 0 0 0 0 0 0 0 0 0 0 0 0 0 0 0 0 0 0 0 0 0 -87 -25 -7 -15 -10 -20
0 0 0 0 0 0 0 0 0 0 0 0 0 0 0 0 0 0 0 0 0 0 0 0 0 0 0 0 0 0 0 0 0 0 0 0 0 0 0 0 0 0 0 0 -144 -89 -4 -5 -32
0 0 0 0 0 0 0 0 0 0 0 0 0 0 0 0 0 0 0 0 0 0 0 0 0 0 0 0 0 0 0 0 0 -1 0 0 0 -1 0 0 -1 0 0 0 -33 -67 -4 -21 0
0 0 0 0 0 0 0 0 0 0 0 0 0 0 0 0 0 0 0 0 0 0 0 0 0 0 0 0 0 0 0 0 0 0 0 0 -1 -3 -1 -1 -1 -1 0 -1 -3 -2 -4 -39 -5
0 0 0 0 0 0 0 0 0 0 0 0 0 0 0 0 0 0 0 0 0 0 0 0 0 0 0 0 0 0 0 -1 -1 0 0 -2 0 -2 0 -2 -2 -1 0 -2 -4 -4 -19 -85 -14
0 0 0 0 0 0 0 0 0 0 0 0 0 0 0 0 0 0 0 0 0 0 0 0 0 0 0 0 0 0 -1 -1 -1 0 0 -1 -2 -3 -7 -4 -4 -2 -1 -6 -3 -36 -19 0 -2
0 0 0 0 0 0 0 0 0 0 0 0 0 0 0 0 0 0 0 0 0 0 0 0 0 0 0 0 0 0 0 -1 0 0 0 -1 0 0 -1 -4 -4 -2 -1 -21 -5 -27 0 0 0
0 0 0 0 0 0 0 0 0 0 0 0 0 0 0 0 0 0 0 0 0 0 0 0 0 0 0 0 0 0 -1 0 0 0 -21 0 0 -1 0 -4 -5 -1 -2 -34 -15 -23 0 0 0
0 0 0 0 0 0 0 0 0 0 0 0 0 0 0 0 0 0 0 0 0 0 0 0 0 0 0 0 0 0 -1 -1 -1 0 0 0 -1 -2 -11 -1 -2 -1 0 -5 -22 -11 0 0 0
0 0 0 0 0 0 0 0 0 0 0 0 0 0 0 0 0 0 0 0 0 0 0 0 0 0 0 0 -1 0 0 0 0 0 0 0 -3 -5 -7 -2 -2 -2 0 -51 -12 0 -1 0 -7
0 0 0 0 0 0 0 0 0 0 0 0 0 0 0 0 0 0 0 0 0 0 0 0 0 0 0 0 0 0 0 0 0 -2 0 0 -1 -1 0 0 -2 0 0 -1 0 0 0 0 0
0 0 0 0 0 0 0 0 0 0 0 0 0 0 0 0 0 0 0 0 0 0 0 0 0 0 0 0 0 0 0 0 -1 -1 0 -9 -1 0 -1 -1 0 0 0 0 0 0 0 0 -12
0 0 0 0 0 0 0 0 0 0 0 0 0 0 0 0 0 0 0 0 0 0 0 0 0 0 0 0 0 0 -1 0 -1 -3 0 -1 -4 -2 -1 0 0 0 0 0 -47 0 0 -1 -4
0 0 0 0 0 0 0 0 0 0 0 0 0 0 0 0 0 0 0 0 0 0 0 0 0 0 0 0 0 0 0 0 -1 -3 -1 0 0 0 0 0 0 0 0 0 0 0 0 0 0
0 0 0 0 0 0 0 0 0 0 0 0 0 0 0 0 0 0 0 0 0 0 0 0 0 0 0 0 0 0 0 0 0 -21 -7 0 0 0 0 0 0 0 -8 0 0 0 0 -2 0
0 0 0 0 0 0 0 0 0 0 0 0 0 0 0 0 0 0 0 0 0 0 0 0 0 0 0 0 0 0 0 0 0 0 -9 -2 0 0 -2 -21 -1 0 0 0 0 0 0 0 0
0 0 0 0 0 0 0 0 0 0 0 0 0 0 0 0 0 0 0 0 0 0 0 0 0 0 0 0 0 0 0 0 0 0 0 0 -2 0 -19 -16 -4 -9 -17 -17 0 0 0 0 0
0 0 0 0 0 0 0 0 0 0 0 0 0 0 0 0 0 0 0 0 0 0 0 0 0 0 0 0 0 0 0 0 0 0 0 0 0 -1 0 -1 -1 -47 -7 0 0 0 0 0 0
0 0 0 0 0 0 0 0 0 0 0 0 0 0 0 0 0 0 0 0 0 0 0 0 0 0 0 0 0 0 0 0 0 0 0 0 0 0 0 0 0 -2 0 0 0 0 -3 0 0
0 0 0 0 0 0 0 0 0 0 0 0 0 0 0 0 0 0 0 0 0 0 0 0 0 0 0 0 0 0 0 0 0 0 0 0 0 0 0 0 0 0 0 -1 0 -1 0 0 0
0 0 0 0 0 0 0 0 0 0 0 0 0 0 0 0 0 0 0 0 0 0 0 0 0 0 0 0 0 0 0 0 0 0 0 0 0 0 0 0 0 0 0 0 0 0 0 0 0
0 0 0 0 0 0 0 0 0 0 0 0 0 0 0 0 0 0 0 0 0 0 0 0 0 0 0 0 0 0 0 0 0 0 0 0 0 0 0 0 0 0 0 0 0 0 0 0 0
Wind_Speed
21 19 16 18 11 8 6 15 19 16 15 13 14 13 13 17 12 9 12 14 13 14 15 17 20 21 23 24 23 21 21 19 18 18 17 18 18 13 11 11 10 9 8 8 9 9 9 9 7
19 15 14 19 13 6 12 14 16 16 14 13 12 14 14 12 15 14 12 13 13 14 15 17 21 23 24 24 22 22 21 19 19 18 19 19 18 19 18 14 14 13 12 11 11 10 10 11 9
17 12 17 14 15 8 17 18 19 15 13 11 12 17 16 13 15 13 15 11 12 14 16 17 22 24 25 24 23 22 21 22 21 20 21 21 22 21 20 21 18 17 15 15 14 13 11 10 9
12 11 16 16 13 19 22 20 19 13 13 13 15 13 14 15 12 12 11 10 12 14 16 18 22 23 23 24 24 23 23 23 22 22 22 22 23 23 24 23 23 21 20 18 16 14 12 11 11
11 17 16 17 21 24 23 22 18 14 14 12 9 12 13 11 11 11 9 10 12 14 17 18 21 23 23 24 25 25 25 24 24 23 24 24 24 24 24 25 27 27 26 22 19 17 14 12 10
13 17 18 19 21 19 23 21 18 16 12 14 14 7 13 13 7 9 8 9 12 15 17 17 19 22 23 24 25 25 25 25 25 25 27 26 25 24 24 27 29 30 30 26 21 19 15 12 10
17 17 21 26 25 25 24 20 18 18 12 10 17 16 15 9 6 7 8 10 12 15 16 17 20 23 22 23 24 25 25 26 26 27 28 27 26 25 26 26 27 32 34 32 26 20 17 14 11
18 18 21 19 23 25 20 20 21 19 19 17 15 17 10 8 5 7 9 10 11 13 15 17 21 24 25 26 26 25 28 28 29 29 29 26 25 26 26 23 23 29 36 37 34 24 19 16 13
18 19 22 22 22 21 18 20 17 19 18 17 11 17 19 11 7 8 10 9 10 12 14 17 20 24 26 28 27 28 28 29 29 28 27 24 24 25 24 23 23 28 35 36 37 37 20 16 13
17 20 23 21 21 22 20 21 23 21 16 7 8 6 13 9 6 7 8 9 7 10 12 16 20 24 28 29 29 30 30 30 30 29 25 24 24 25 26 28 30 29 35 37 37 36 22 19 14
17 22 23 22 23 23 25 24 13 22 12 4 12 3 2 4 5 5 6 7 10 11 13 16 21 24 26 28 30 29 31 31 29 25 22 23 24 24 24 23 25 25 26 28 33 32 24 22 14
23 24 28 23 22 23 23 26 19 13 19 20 24 19 6 2 2 2 4 6 8 10 14 19 21 23 25 28 29 31 32 30 27 22 23 23 23 22 22 24 25 25 26 24 29 26 18 15 9
25 28 25 26 26 26 24 6 19 14 13 6 9 13 6 4 3 3 5 7 8 10 15 18 21 23 26 28 30 31 30 27 24 23 21 20 20 22 24 23 26 26 24 25 28 17 15 14 12
23 27 30 27 26 21 24 27 23 21 19 11 6 4 3 4 3 3 4 5 7 11 14 18 21 25 27 28 30 29 27 25 23 22 21 20 21 23 25 25 24 24 23 22 17 13 13 9 12
26 31 31 21 21 22 24 26 6 5 11 16 12 4 3 2 2 2 3 5 8 10 15 19 23 25 26 28 28 28 26 24 23 23 21 22 22 19 22 25 24 23 20 20 13 13 12 12 7
25 25 29 17 16 19 20 26 23 14 13 12 12 9 4 2 1 2 4 6 8 11 15 20 23 25 27 26 27 27 26 24 24 23 22 22 19 18 19 22 22 23 18 20 13 12 10 8 5
23 31 24 26 18 21 17 28 24 18 12 15 17 11 6 2 2 1 3 6 8 12 16 21 23 25 25 25 27 26 24 25 24 22 19 18 17 15 19 22 23 20 21 21 13 12 11 7 6
30 28 27 28 21 21 27 26 22 18 17 16 17 29 5 5 6 0 2 5 8 12 16 20 22 24 24 25 27 26 25 25 22 22 17 13 13 9 21 21 22 20 23 21 12 12 7 7 8
31 32 34 31 25 30 36 39 36 26 25 21 24 31 11 6 2 1 3 5 7 11 16 19 22 23 23 26 28 27 28 26 23 22 16 12 14 17 20 24 22 24 23 16 12 14 12 6 9
30 34 33 32 25 28 38 42 39 34 22 25 21 23 7 4 2 1 2 5 7 11 15 19 22 22 22 23 25 23 25 23 18 17 19 18 18 21 24 25 23 24 21 14 17 20 9 9 11
28 31 31 32 32 31 37 39 27 22 22 19 18 17 16 8 1 1 2 4 7 10 14 19 22 22 20 22 23 23 24 26 23 18 22 20 21 23 25 26 26 24 23 20 23 19 13 13 20
35 25 27 29 31 34 27 42 32 30 26 21 18 18 16 9 1 3 4 5 7 11 14 18 21 20 19 22 23 22 23 26 23 17 20 24 24 26 25 24 21 21 32 24 20 21 22 12 29
27 22 25 28 32 35 27 33 36 31 30 21 18 17 14 9 2 4 5 6 9 11 14 17 20 19 19 21 22 21 22 23 22 22 21 26 28 27 26 28 31 16 27 24 30 21 12 20 17
20 25 27 29 30 36 31 29 36 28 24 20 15 13 10 6 3 4 6 7 9 12 14 16 19 18 18 19 20 19 21 23 24 26 26 28 29 28 26 25 29 28 23 23 23 11 13 17 24
22 25 31 33 31 36 27 30 30 27 23 20 13 9 6 4 3 3 5 6 9 11 14 16 17 18 17 19 19 18 19 21 23 24 24 26 26 24 24 23 23 27 27 26 20 6 11 13 15
24 27 31 38 35 33 27 31 26 22 20 16 12 7 5 3 4 4 5 7 8 11 13 15 16 17 16 17 18 18 18 19 20 22 23 24 24 24 23 25 23 25 26 23 19 22 20 18 13
30 36 30 38 36 41 36 35 36 24 21 14 11 6 5 3 4 4 5 6 8 10 12 13 15 16 14 15 16 16 16 17 18 20 21 21 21 21 16 14 13 13 13 20 23 8 33 16 9
31 24 32 31 39 42 34 33 31 24 20 14 12 11 8 5 3 4 4 5 7 10 11 12 13 14 13 12 13 14 15 16 17 18 20 21 21 22 19 15 14 11 10 5 22 7 8 4 5
32 34 30 30 32 37 39 34 25 24 21 15 14 11 9 6 5 4 5 6 7 9 10 12 12 13 13 11 11 12 13 15 16 17 18 19 20 21 23 25 23 20 17 3 15 3 7 16 7
33 33 31 35 35 34 36 39 22 21 18 17 17 10 9 8 6 6 6 5 6 8 10 12 11 11 12 10 9 9 11 13 14 15 16 18 19 20 22 25 23 19 17 12 9 13 4 15 14
Wind_Direction
259 276 300 284 336 3 15 318 291 310 320 330 327 338 342 333 7 23 359 344 353 351 347 346 321 317 328 332 343 352 354 356 355 351 348 343 340 331 320 315 312 307 299 291 287 288 290 285 275
278 305 311 287 323 8 351 312 313 319 329 336 335 327 331 350 339 345 353 348 351 347 344 344 322 324 333 338 346 347 349 349 346 344 341 335 331 329 321 309 305 298 294 291 290 285 282 281 278
289 318 297 319 314 337 318 312 308 325 337 345 342 316 330 353 342 349 342 358 351 347 342 342 325 325 331 339 345 347 347 344 341 338 334 329 326 320 315 313 300 295 287 284 282 278 275 271 271
321 330 312 309 316 300 293 305 315 336 339 328 324 339 335 337 352 353 2 358 347 342 340 341 330 332 339 342 345 347 347 345 342 338 333 327 321 317 312 307 304 291 285 279 273 269 263 257 265
321 301 307 310 299 290 293 298 319 330 338 338 343 339 340 353 354 0 7 358 347 341 338 339 336 335 342 343 345 345 345 344 341 338 334 328 322 315 309 303 298 291 284 277 271 266 259 252 258
314 304 304 304 304 303 296 305 316 321 332 333 331 337 341 348 8 3 7 2 348 340 341 342 342 337 340 342 342 344 344 342 339 335 331 326 322 316 309 300 294 287 282 276 268 264 255 240 245
299 302 296 289 293 296 296 309 312 317 327 329 324 329 337 359 13 12 7 357 348 340 340 343 337 332 340 342 344 343 342 339 336 332 328 324 320 316 310 304 295 285 276 274 270 258 249 235 242
297 299 296 306 299 297 311 313 313 313 315 322 332 332 346 5 31 11 358 354 349 341 341 342 338 334 337 339 341 341 339 338 335 331 328 325 320 312 307 303 298 287 274 268 269 262 248 235 234
291 295 293 297 304 309 323 315 331 325 319 323 335 319 325 353 15 359 347 348 347 341 342 344 341 336 337 339 341 341 340 338 335 333 331 330 326 320 313 305 299 289 273 268 265 263 246 222 214
288 291 291 303 307 311 323 318 314 321 326 324 326 328 333 345 352 345 341 341 346 345 348 347 345 340 338 340 341 342 341 340 338 336 335 332 329 324 315 305 296 288 273 266 262 258 246 210 206
298 287 294 304 303 310 311 315 333 318 315 242 321 312 301 336 337 339 339 342 344 348 348 349 346 344 344 344 343 344 342 341 340 341 340 334 330 326 321 315 302 289 277 270 260 259 250 242 200
288 287 281 300 310 315 318 316 328 322 226 303 311 321 338 307 303 325 337 345 349 350 348 346 348 349 348 347 346 344 343 343 343 344 341 337 333 330 324 314 301 288 275 270 260 256 241 233 223
282 274 289 291 301 308 317 311 329 276 228 309 324 325 330 318 320 334 341 347 350 353 350 349 351 351 350 349 347 346 346 346 347 344 344 343 338 330 321 315 299 283 275 267 259 237 231 205 203
291 283 276 292 301 322 319 317 328 334 330 323 220 311 315 318 317 338 345 353 353 353 352 352 352 352 352 351 350 351 352 351 350 347 345 340 332 326 318 307 300 281 269 264 246 216 204 206 170
288 280 286 308 314 319 323 321 345 355 345 332 332 319 293 298 320 310 351 357 355 357 354 353 353 355 356 355 357 357 356 355 352 349 346 342 334 329 320 304 291 272 263 259 220 208 207 224 243
292 297 290 317 323 325 328 320 332 355 349 340 333 333 325 248 238 331 349 359 1 360 356 355 356 358 359 1 1 0 1 0 359 356 352 345 340 334 320 301 274 257 255 249 204 196 179 185 205
294 283 298 302 319 320 325 313 329 341 345 327 322 320 309 261 213 290 352 358 3 3 358 357 359 2 6 7 6 5 7 7 6 4 3 1 356 346 310 273 243 248 240 232 188 184 178 175 186
284 290 294 297 315 316 308 246 250 246 242 243 231 235 284 203 188 162 41 17 10 9 5 3 5 7 12 13 11 14 16 16 19 18 24 29 29 165 219 225 224 231 226 208 176 162 168 152 163
287 287 288 296 310 307 295 271 267 258 251 241 231 234 211 214 216 350 46 36 29 16 8 7 9 13 18 17 18 21 22 24 32 38 56 87 137 163 182 180 198 207 212 144 148 144 146 167 159
286 284 290 297 307 309 291 274 271 287 334 317 312 297 309 271 241 335 53 50 39 23 16 11 14 19 25 26 25 31 31 36 43 58 76 100 130 149 153 163 186 192 196 130 127 125 143 153 174
284 286 293 296 300 303 295 288 311 325 329 331 318 314 321 326 192 137 91 56 41 31 23 14 16 23 32 33 34 41 43 45 56 73 82 108 129 138 151 158 158 183 120 126 121 123 137 145 210
279 293 293 296 300 298 311 287 301 311 317 323 320 310 310 325 18 109 98 63 43 31 28 19 19 27 38 38 40 48 50 50 60 80 97 100 123 136 153 169 178 187 123 123 120 120 200 182 191
282 295 295 296 297 297 302 301 285 307 311 316 316 312 312 323 37 94 87 57 36 28 27 24 20 31 40 43 46 55 57 58 64 82 107 99 112 128 150 147 146 190 115 118 150 123 207 212 208
287 291 293 294 295 291 296 299 296 307 315 319 326 321 321 334 17 54 51 40 30 23 25 26 21 30 41 48 49 63 66 66 74 81 94 99 106 116 125 141 139 127 111 119 125 219 217 212 214
279 285 286 287 288 289 300 296 301 305 314 318 321 327 333 345 1 18 21 26 20 20 20 24 22 24 39 49 52 69 74 77 80 86 98 97 98 97 92 94 112 125 125 136 127 131 215 201 226
272 278 278 280 285 291 301 293 304 318 318 317 317 319 325 329 331 340 357 9 12 15 16 21 21 20 35 48 56 69 79 84 90 91 99 99 89 96 100 106 100 114 121 119 117 213 213 220 228
272 270 280 279 284 285 288 292 296 301 305 307 307 306 304 303 308 322 344 358 5 10 13 16 17 16 28 44 61 66 87 86 95 101 104 108 105 98 61 69 65 79 83 105 115 111 166 223 230
269 276 273 275 278 280 287 288 292 306 308 292 286 288 287 286 287 307 328 348 359 360 6 8 12 13 19 38 62 67 93 94 97 109 110 111 114 118 96 85 87 75 66 73 127 212 225 209 235
262 265 270 277 274 279 282 289 302 303 304 301 294 284 283 272 272 290 312 334 349 353 358 360 4 9 10 28 53 69 82 108 97 107 115 121 121 126 132 143 143 135 113 32 115 134 122 134 125
263 264 259 267 274 276 281 280 304 308 312 309 304 290 284 282 279 286 301 322 337 341 341 347 354 358 359 12 36 61 77 97 110 103 116 122 126 127 146 175 159 134 131 162 111 131 154 142 145